Location: Helsinki
(60.1699°N, 24.9384°E)
Time: 15:59:00
(UTC+02:00)

Tiros 1 - Pass Details

Date: 10 October 2022
Orbit: 629 x 662 km, 48.4° (Epoch: 07 December)

Event Time Altitude Azimuth Distance (km) Brightness Sun altitude
Rises 00:45:29 0° 242° (WSW) 2,993 - -36.2°
Reaches altitude 10° 00:48:20 10° 226° (SW) 2,080 - -36.2°
Maximum altitude 00:51:49 20° 179° (S) 1,514 - -36.3°
Drops below altitude 10° 00:55:17 10° 132° (SE) 2,074 - -36.3°
Sets 00:58:07 0° 116° (ESE) 2,981 - -36.3°
